This is the latest recevied weather packets stored in our database for station/object N3FAA. If no packets are shown the sender has not sent any weather packets the latest 1 day(s).
| Time | Temp. | Humidity | Pressure | Rain* | Wind** | Luminosity | Snow |
|---|---|---|---|---|---|---|---|
| 1777988384 | 8.89° C | 78% | 1009.6 hPa | 0 mm | 0 m/s | 31 W/m² | - |
| 1777988082 | 8.89° C | 78% | 1009.3 hPa | 0 mm | 0 m/s | 27 W/m² | - |
| 1777987777 | 8.89° C | 79% | 1009.5 hPa | 0 mm | 0 m/s | 24 W/m² | - |
| 1777987474 | 8.89° C | 78% | 1009.2 hPa | 0 mm | 0 m/s | 19 W/m² | - |
| 1777987172 | 8.89° C | 79% | 1009.5 hPa | 0 mm | 0 m/s | 15 W/m² | - |
| 1777986868 | 8.89° C | 78% | 1009.4 hPa | 0 mm | 0 m/s | 10 W/m² | - |
| 1777986566 | 8.89° C | 78% | 1009.3 hPa | 0 mm | 0 m/s | 7 W/m² | - |
| 1777986264 | 8.89° C | 78% | 1009.4 hPa | 0 mm | 0 m/s | 3 W/m² | - |
| 1777985961 | 8.89° C | 78% | 1009.2 hPa | 0 mm | 0 m/s | 2 W/m² | - |
| 1777985659 | 8.89° C | 78% | 1009.5 hPa | 0 mm | 0 m/s | 0 W/m² | - |
| 1777985355 | 9.44° C | 77% | 1009.3 hPa | 0 mm | 0 m/s | 0 W/m² | - |
| 1777985052 | 9.44° C | 77% | 1009.4 hPa | 0 mm | 1.34 m/s, 250° | 0 W/m² | - |
| 1777984748 | 9.44° C | 77% | 1009.5 hPa | 0 mm | 0 m/s | 0 W/m² | - |
| 1777984445 | 9.44° C | 76% | 1009.3 hPa | 0 mm | 0 m/s | 0 W/m² | - |
| 1777984140 | 9.44° C | 76% | 1009.6 hPa | 0 mm | 0 m/s | 0 W/m² | - |
| 1777983838 | 9.44° C | 75% | 1009.3 hPa | 0 mm | 0 m/s | 0 W/m² | - |
| 1777983535 | 10° C | 75% | 1009.2 hPa | 0 mm | 0 m/s | 0 W/m² | - |
| 1777983232 | 10° C | 74% | 1009.5 hPa | 0 mm | 0 m/s | 0 W/m² | - |
| 1777982928 | 10° C | 74% | 1009.5 hPa | 0 mm | 2.24 m/s, 251° | 0 W/m² | - |
| 1777982624 | 10° C | 75% | 1009.4 hPa | 0 mm | 0 m/s | 0 W/m² | - |
| 1777982323 | 10° C | 75% | 1009.3 hPa | 0 mm | 0 m/s | 0 W/m² | - |
| 1777982020 | 10° C | 75% | 1009.3 hPa | 0 mm | 0 m/s | 0 W/m² | - |
| 1777981718 | 10° C | 75% | 1009.4 hPa | 0 mm | 0 m/s | 0 W/m² | - |
| 1777981414 | 10° C | 75% | 1009.2 hPa | 0 mm | 0 m/s | 0 W/m² | - |
| 1777981110 | 10° C | 75% | 1009.4 hPa | 0 mm | 0 m/s | 0 W/m² | - |
* Rain latest hour (hover to see other rain measurements)
** Current wind speed in m/s (hover to see current wind gust speed)